Time,TemperatureF,DewpointF,PressureIn,WindDirection,WindDirectionDegrees,WindSpeedMPH,WindSpeedGustMPH,Humidity,HourlyPrecipIn,Conditions,Clouds,dailyrainin,SoftwareType,DateUTC
2013-04-19 00:03:00,38.0,27.0,29.88,NW,305,18.0,25.0,64,-99.99,,,-99.99,,2013-04-19 05:03:00,
2013-04-19 00:11:00,38.0,28.0,29.88,WNW,290,16.0,22.0,65,-99.99,,,-99.99,,2013-04-19 05:11:00,
2013-04-19 00:22:00,38.0,28.0,29.88,WNW,290,16.0,22.0,65,-99.99,,,-99.99,,2013-04-19 05:22:00,
2013-04-19 00:32:00,38.0,26.0,29.88,WNW,295,15.0,24.0,63,-99.99,,,-99.99,,2013-04-19 05:32:00,
2013-04-19 00:42:00,38.0,26.0,29.88,WNW,300,12.0,21.0,62,-99.99,,,-99.99,,2013-04-19 05:42:00,
2013-04-19 00:52:00,38.0,26.0,29.88,WNW,300,12.0,21.0,62,-99.99,,,-99.99,,2013-04-19 05:52:00,
2013-04-19 01:02:00,38.0,27.0,29.88,WNW,285,13.0,24.0,64,-99.99,,,-99.99,,2013-04-19 06:02:00,
2013-04-19 01:12:00,37.0,26.0,29.89,West,280,21.0,28.0,63,-99.99,,,-99.99,,2013-04-19 06:12:00,
2013-04-19 01:22:00,37.0,26.0,29.89,West,280,21.0,28.0,63,-99.99,,,-99.99,,2013-04-19 06:22:00,
2013-04-19 01:32:00,37.0,25.0,29.89,WNW,290,15.0,30.0,62,-99.99,,,-99.99,,2013-04-19 06:32:00,
2013-04-19 01:42:00,37.0,25.0,29.89,WNW,285,15.0,22.0,61,-99.99,,,-99.99,,2013-04-19 06:42:00,
2013-04-19 01:52:00,37.0,25.0,29.89,WNW,285,15.0,22.0,61,-99.99,,,-99.99,,2013-04-19 06:52:00,
2013-04-19 02:02:00,37.0,24.0,29.89,WNW,285,19.0,30.0,59,-99.99,,,-99.99,,2013-04-19 07:02:00,
2013-04-19 02:12:00,37.0,24.0,29.89,WNW,295,13.0,27.0,59,-99.99,,,-99.99,,2013-04-19 07:12:00,
2013-04-19 02:21:00,37.0,24.0,29.89,WNW,295,13.0,27.0,59,-99.99,,,-99.99,,2013-04-19 07:21:00,
2013-04-19 02:32:00,36.0,23.0,29.88,West,280,18.0,24.0,58,-99.99,,,-99.99,,2013-04-19 07:32:00,
2013-04-19 02:42:00,36.0,24.0,29.88,WNW,285,15.0,24.0,59,-99.99,,,-99.99,,2013-04-19 07:42:00,
2013-04-19 02:52:00,36.0,24.0,29.88,WNW,285,15.0,24.0,59,-99.99,,,-99.99,,2013-04-19 07:52:00,
2013-04-19 03:02:00,36.0,24.0,29.88,WNW,285,13.0,24.0,60,-99.99,,,-99.99,,2013-04-19 08:02:00,
2013-04-19 03:12:00,36.0,24.0,29.88,WNW,295,13.0,19.0,60,-99.99,,,-99.99,,2013-04-19 08:12:00,
2013-04-19 03:21:00,36.0,24.0,29.88,WNW,295,13.0,19.0,60,-99.99,,,-99.99,,2013-04-19 08:21:00,
2013-04-19 03:32:00,36.0,25.0,29.88,WNW,285,11.0,19.0,62,-99.99,,,-99.99,,2013-04-19 08:32:00,
2013-04-19 03:42:00,36.0,24.0,29.88,WNW,290,18.0,24.0,60,-99.99,,,-99.99,,2013-04-19 08:42:00,
2013-04-19 03:52:00,36.0,24.0,29.88,WNW,290,18.0,24.0,60,-99.99,,,-99.99,,2013-04-19 08:52:00,
2013-04-19 04:01:00,36.0,24.0,29.88,WNW,295,16.0,26.0,60,-99.99,,,-99.99,,2013-04-19 09:01:00,
2013-04-19 04:12:00,36.0,24.0,29.88,West,280,12.0,20.0,61,-99.99,,,-99.99,,2013-04-19 09:12:00,
2013-04-19 04:21:00,36.0,24.0,29.88,West,280,12.0,20.0,61,-99.99,,,-99.99,,2013-04-19 09:21:00,
2013-04-19 04:32:00,36.0,24.0,29.88,WNW,285,15.0,23.0,60,-99.99,,,-99.99,,2013-04-19 09:32:00,
2013-04-19 04:43:00,36.0,24.0,29.88,WNW,290,12.0,21.0,61,-99.99,,,-99.99,,2013-04-19 09:43:00,
2013-04-19 04:52:00,36.0,24.0,29.88,WNW,290,12.0,21.0,61,-99.99,,,-99.99,,2013-04-19 09:52:00,
2013-04-19 05:02:00,36.0,24.0,29.87,West,280,12.0,20.0,62,-99.99,,,-99.99,,2013-04-19 10:02:00,
2013-04-19 05:13:00,36.0,24.0,29.88,West,280,18.0,26.0,61,-99.99,,,-99.99,,2013-04-19 10:13:00,
2013-04-19 05:23:00,36.0,24.0,29.88,West,280,18.0,26.0,61,-99.99,,,-99.99,,2013-04-19 10:23:00,
2013-04-19 05:33:00,35.0,22.0,29.88,WNW,285,16.0,29.0,60,-99.99,,,-99.99,,2013-04-19 10:33:00,
2013-04-19 05:42:00,34.0,22.0,29.88,WNW,285,18.0,24.0,61,-99.99,,,-99.99,,2013-04-19 10:42:00,
2013-04-19 05:52:00,34.0,22.0,29.88,WNW,285,18.0,24.0,61,-99.99,,,-99.99,,2013-04-19 10:52:00,
2013-04-19 06:03:00,33.0,23.0,29.88,WNW,285,15.0,22.0,64,-99.99,,,-99.99,,2013-04-19 11:03:00,
2013-04-19 06:11:00,33.0,23.0,29.89,West,280,14.0,22.0,66,-99.99,,,-99.99,,2013-04-19 11:11:00,
2013-04-19 06:22:00,33.0,23.0,29.89,West,280,14.0,22.0,66,-99.99,,,-99.99,,2013-04-19 11:22:00,
2013-04-19 06:32:00,34.0,23.0,29.90,WNW,285,14.0,23.0,65,-99.99,,,-99.99,,2013-04-19 11:32:00,
2013-04-19 06:42:00,34.0,23.0,29.90,West,280,16.0,21.0,65,-99.99,,,-99.99,,2013-04-19 11:42:00,
2013-04-19 06:52:00,34.0,23.0,29.90,West,280,16.0,21.0,65,-99.99,,,-99.99,,2013-04-19 11:52:00,
2013-04-19 07:03:00,34.0,23.0,29.91,WNW,290,11.0,26.0,64,-99.99,,,-99.99,,2013-04-19 12:03:00,
2013-04-19 07:12:00,34.0,23.0,29.92,West,280,14.0,24.0,63,-99.99,,,-99.99,,2013-04-19 12:12:00,
2013-04-19 07:22:00,34.0,23.0,29.92,West,280,14.0,24.0,63,-99.99,,,-99.99,,2013-04-19 12:22:00,
2013-04-19 07:32:00,34.0,23.0,29.92,West,275,17.0,27.0,63,-99.99,,,-99.99,,2013-04-19 12:32:00,
2013-04-19 07:42:00,34.0,23.0,29.93,WNW,295,15.0,23.0,63,-99.99,,,-99.99,,2013-04-19 12:42:00,
2013-04-19 07:52:00,34.0,23.0,29.93,WNW,295,15.0,23.0,63,-99.99,,,-99.99,,2013-04-19 12:52:00,
2013-04-19 08:01:00,35.0,23.0,29.94,West,280,14.0,23.0,63,-99.99,,,-99.99,,2013-04-19 13:01:00,
2013-04-19 08:11:00,34.0,23.0,29.95,WNW,285,12.0,24.0,63,-99.99,,,-99.99,,2013-04-19 13:11:00,
2013-04-19 08:21:00,34.0,23.0,29.95,WNW,285,12.0,24.0,63,-99.99,,,-99.99,,2013-04-19 13:21:00,
2013-04-19 08:32:00,35.0,24.0,29.95,West,275,14.0,21.0,64,-99.99,,,-99.99,,2013-04-19 13:32:00,
2013-04-19 08:42:00,35.0,24.0,29.95,West,280,13.0,23.0,63,-99.99,,,-99.99,,2013-04-19 13:42:00,
2013-04-19 08:52:00,35.0,24.0,29.95,West,280,13.0,23.0,63,-99.99,,,-99.99,,2013-04-19 13:52:00,
2013-04-19 09:02:00,35.0,24.0,29.96,WNW,285,17.0,23.0,63,-99.99,,,-99.99,,2013-04-19 14:02:00,
2013-04-19 09:11:00,35.0,23.0,29.95,WNW,290,19.0,27.0,61,-99.99,,,-99.99,,2013-04-19 14:11:00,
2013-04-19 09:22:00,35.0,23.0,29.95,WNW,290,19.0,27.0,61,-99.99,,,-99.99,,2013-04-19 14:22:00,
2013-04-19 09:32:00,36.0,24.0,29.96,WNW,295,14.0,23.0,63,-99.99,,,-99.99,,2013-04-19 14:32:00,
2013-04-19 09:42:00,36.0,25.0,29.96,West,280,20.0,30.0,63,-99.99,,,-99.99,,2013-04-19 14:42:00,
2013-04-19 09:52:00,36.0,25.0,29.96,West,280,20.0,30.0,63,-99.99,,,-99.99,,2013-04-19 14:52:00,
2013-04-19 10:02:00,36.0,24.0,29.97,WNW,285,20.0,27.0,60,-99.99,,,-99.99,,2013-04-19 15:02:00,
2013-04-19 10:12:00,38.0,25.0,29.96,WNW,285,19.0,27.0,59,-99.99,,,-99.99,,2013-04-19 15:12:00,
2013-04-19 10:21:00,38.0,25.0,29.96,WNW,285,19.0,27.0,59,-99.99,,,-99.99,,2013-04-19 15:21:00,
2013-04-19 10:33:00,37.0,24.0,29.98,WNW,285,17.0,26.0,58,-99.99,,,-99.99,,2013-04-19 15:33:00,
2013-04-19 10:43:00,38.0,25.0,29.98,WNW,300,16.0,29.0,58,-99.99,,,-99.99,,2013-04-19 15:43:00,
2013-04-19 10:52:00,38.0,25.0,29.98,WNW,300,16.0,29.0,58,-99.99,,,-99.99,,2013-04-19 15:52:00,
2013-04-19 11:03:00,39.0,22.0,29.98,WNW,300,21.0,29.0,50,-99.99,,,-99.99,,2013-04-19 16:03:00,
2013-04-19 11:13:00,40.0,23.0,29.98,WNW,290,18.0,32.0,51,-99.99,,,-99.99,,2013-04-19 16:13:00,
2013-04-19 11:23:00,40.0,23.0,29.98,WNW,290,18.0,32.0,51,-99.99,,,-99.99,,2013-04-19 16:23:00,
2013-04-19 11:32:00,40.0,22.0,29.99,WNW,285,21.0,29.0,48,-99.99,,,-99.99,,2013-04-19 16:32:00,
2013-04-19 11:42:00,41.0,25.0,29.99,West,270,19.0,24.0,53,-99.99,,,-99.99,,2013-04-19 16:42:00,
2013-04-19 11:52:00,41.0,25.0,29.99,West,270,19.0,24.0,53,-99.99,,,-99.99,,2013-04-19 16:52:00,
2013-04-19 12:02:00,42.0,24.0,29.99,West,275,17.0,25.0,49,-99.99,,,-99.99,,2013-04-19 17:02:00,
2013-04-19 12:12:00,42.0,22.0,30.00,West,270,14.0,26.0,43,-99.99,,,-99.99,,2013-04-19 17:12:00,
2013-04-19 12:21:00,42.0,22.0,30.00,West,270,14.0,26.0,43,-99.99,,,-99.99,,2013-04-19 17:21:00,
2013-04-19 12:33:00,43.0,23.0,29.99,West,275,20.0,31.0,45,-99.99,,,-99.99,,2013-04-19 17:33:00,
2013-04-19 12:42:00,44.0,24.0,29.99,West,275,19.0,30.0,45,-99.99,,,-99.99,,2013-04-19 17:42:00,
2013-04-19 12:52:00,44.0,24.0,29.99,West,275,19.0,30.0,45,-99.99,,,-99.99,,2013-04-19 17:52:00,
2013-04-19 13:02:00,44.0,23.0,29.99,West,265,20.0,29.0,42,-99.99,,,-99.99,,2013-04-19 18:02:00,
2013-04-19 13:13:00,45.0,23.0,29.99,West,280,21.0,29.0,41,-99.99,,,-99.99,,2013-04-19 18:13:00,
2013-04-19 13:23:00,45.0,23.0,29.99,West,280,21.0,29.0,41,-99.99,,,-99.99,,2013-04-19 18:23:00,
2013-04-19 13:33:00,45.0,22.0,29.98,NW,310,16.0,27.0,39,-99.99,,,-99.99,,2013-04-19 18:33:00,
2013-04-19 13:43:00,46.0,24.0,29.98,West,265,19.0,29.0,42,-99.99,,,-99.99,,2013-04-19 18:43:00,
2013-04-19 13:52:00,46.0,24.0,29.98,West,265,19.0,29.0,42,-99.99,,,-99.99,,2013-04-19 18:52:00,
2013-04-19 14:02:00,46.0,22.0,29.98,WNW,295,18.0,30.0,38,-99.99,,,-99.99,,2013-04-19 19:02:00,
2013-04-19 14:11:00,47.0,22.0,29.98,WNW,295,16.0,31.0,37,-99.99,,,-99.99,,2013-04-19 19:11:00,
2013-04-19 14:21:00,47.0,22.0,29.98,WNW,295,16.0,31.0,37,-99.99,,,-99.99,,2013-04-19 19:21:00,
2013-04-19 14:32:00,47.0,23.0,29.98,West,280,23.0,31.0,38,-99.99,,,-99.99,,2013-04-19 19:32:00,
2013-04-19 14:42:00,48.0,24.0,29.98,West,280,17.0,30.0,39,-99.99,,,-99.99,,2013-04-19 19:42:00,
2013-04-19 14:52:00,48.0,24.0,29.98,West,280,17.0,30.0,39,-99.99,,,-99.99,,2013-04-19 19:52:00,
2013-04-19 15:02:00,49.0,24.0,29.99,West,280,18.0,33.0,36,-99.99,,,-99.99,,2013-04-19 20:02:00,
2013-04-19 15:11:00,48.0,21.0,29.99,West,265,22.0,30.0,34,-99.99,,,-99.99,,2013-04-19 20:11:00,
2013-04-19 15:22:00,48.0,21.0,29.99,West,265,22.0,30.0,34,-99.99,,,-99.99,,2013-04-19 20:22:00,
2013-04-19 15:32:00,49.0,23.0,29.99,WNW,285,18.0,34.0,35,-99.99,,,-99.99,,2013-04-19 20:32:00,
2013-04-19 15:42:00,49.0,23.0,29.98,WNW,285,14.0,28.0,35,-99.99,,,-99.99,,2013-04-19 20:42:00,
2013-04-19 15:51:00,49.0,23.0,29.98,WNW,285,14.0,28.0,35,-99.99,,,-99.99,,2013-04-19 20:51:00,
2013-04-19 16:01:00,50.0,24.0,29.98,West,280,21.0,30.0,35,-99.99,,,-99.99,,2013-04-19 21:01:00,
2013-04-19 16:11:00,50.0,24.0,29.98,West,270,20.0,28.0,36,-99.99,,,-99.99,,2013-04-19 21:11:00,
2013-04-19 16:21:00,50.0,24.0,29.98,West,270,20.0,28.0,36,-99.99,,,-99.99,,2013-04-19 21:21:00,
2013-04-19 16:32:00,50.0,24.0,29.98,West,275,22.0,32.0,35,-99.99,,,-99.99,,2013-04-19 21:32:00,
2013-04-19 16:42:00,50.0,24.0,29.98,West,280,22.0,31.0,36,-99.99,,,-99.99,,2013-04-19 21:42:00,
2013-04-19 16:52:00,50.0,24.0,29.98,West,280,22.0,31.0,36,-99.99,,,-99.99,,2013-04-19 21:52:00,
2013-04-19 17:02:00,50.0,24.0,29.99,WNW,290,18.0,30.0,35,-99.99,,,-99.99,,2013-04-19 22:02:00,
2013-04-19 17:12:00,51.0,25.0,29.99,West,280,19.0,31.0,36,-99.99,,,-99.99,,2013-04-19 22:12:00,
2013-04-19 17:22:00,51.0,25.0,29.99,West,280,19.0,31.0,36,-99.99,,,-99.99,,2013-04-19 22:22:00,
2013-04-19 17:33:00,52.0,25.0,29.99,West,280,20.0,35.0,35,-99.99,,,-99.99,,2013-04-19 22:33:00,
2013-04-19 17:42:00,51.0,24.0,30.00,West,280,20.0,34.0,34,-99.99,,,-99.99,,2013-04-19 22:42:00,
2013-04-19 17:50:00,51.0,23.0,30.01,West,280,18.0,29.0,34,-99.99,,,-99.99,,2013-04-19 22:50:00,
2013-04-19 17:52:00,51.0,24.0,30.00,West,280,20.0,34.0,34,-99.99,,,-99.99,,2013-04-19 22:52:00,
2013-04-19 18:03:00,51.0,23.0,30.01,West,280,18.0,31.0,34,-99.99,,,-99.99,,2013-04-19 23:03:00,
2013-04-19 18:11:00,51.0,23.0,30.01,WNW,300,15.0,30.0,34,-99.99,,,-99.99,,2013-04-19 23:11:00,
2013-04-19 18:22:00,51.0,23.0,30.01,WNW,300,15.0,30.0,34,-99.99,,,-99.99,,2013-04-19 23:22:00,
2013-04-19 18:32:00,51.0,23.0,30.01,West,280,18.0,29.0,34,-99.99,,,-99.99,,2013-04-19 23:32:00,
2013-04-19 18:42:00,51.0,23.0,30.01,West,280,18.0,29.0,34,-99.99,,,-99.99,,2013-04-19 23:42:00,
2013-04-19 19:02:00,51.0,25.0,30.02,WNW,285,18.0,26.0,37,-99.99,,,-99.99,,2013-04-20 00:02:00,
2013-04-19 19:12:00,50.0,25.0,30.02,West,280,14.0,29.0,37,-99.99,,,-99.99,,2013-04-20 00:12:00,
2013-04-19 19:21:00,50.0,25.0,30.02,West,280,14.0,29.0,37,-99.99,,,-99.99,,2013-04-20 00:21:00,
2013-04-19 19:32:00,50.0,25.0,30.01,West,280,13.0,20.0,37,-99.99,,,-99.99,,2013-04-20 00:32:00,
2013-04-19 19:42:00,50.0,25.0,30.01,WNW,300,11.0,17.0,37,-99.99,,,-99.99,,2013-04-20 00:42:00,
2013-04-19 19:51:00,50.0,25.0,30.01,WNW,300,11.0,17.0,37,-99.99,,,-99.99,,2013-04-20 00:51:00,
2013-04-19 20:01:00,50.0,26.0,30.02,WNW,300,6.0,14.0,39,-99.99,,,-99.99,,2013-04-20 01:01:00,
2013-04-19 20:11:00,50.0,25.0,30.02,West,275,6.0,10.0,38,-99.99,,,-99.99,,2013-04-20 01:11:00,
2013-04-19 20:21:00,50.0,25.0,30.02,West,275,6.0,10.0,38,-99.99,,,-99.99,,2013-04-20 01:21:00,
2013-04-19 20:32:00,49.0,26.0,30.02,West,280,4.0,9.0,40,-99.99,,,-99.99,,2013-04-20 01:32:00,
2013-04-19 20:42:00,49.0,26.0,30.02,WNW,295,4.0,7.0,40,-99.99,,,-99.99,,2013-04-20 01:42:00,
2013-04-19 20:52:00,49.0,26.0,30.02,WNW,295,4.0,7.0,40,-99.99,,,-99.99,,2013-04-20 01:52:00,
2013-04-19 21:01:00,49.0,26.0,30.02,WNW,285,3.0,4.0,41,-99.99,,,-99.99,,2013-04-20 02:01:00,
2013-04-19 21:11:00,49.0,26.0,30.02,West,280,3.0,3.0,41,-99.99,,,-99.99,,2013-04-20 02:11:00,
2013-04-19 21:21:00,49.0,26.0,30.02,West,280,3.0,3.0,41,-99.99,,,-99.99,,2013-04-20 02:21:00,
2013-04-19 21:32:00,48.0,27.0,30.03,West,260,4.0,6.0,43,-99.99,,,-99.99,,2013-04-20 02:32:00,
2013-04-19 21:42:00,48.0,27.0,30.03,West,275,4.0,7.0,44,-99.99,,,-99.99,,2013-04-20 02:42:00,
2013-04-19 21:52:00,48.0,27.0,30.03,West,275,4.0,7.0,44,-99.99,,,-99.99,,2013-04-20 02:52:00,
2013-04-19 22:01:00,48.0,27.0,30.04,West,280,3.0,5.0,44,-99.99,,,-99.99,,2013-04-20 03:01:00,
2013-04-19 22:11:00,48.0,27.0,30.04,West,275,3.0,5.0,45,-99.99,,,-99.99,,2013-04-20 03:11:00,
2013-04-19 22:21:00,48.0,27.0,30.04,West,275,3.0,5.0,45,-99.99,,,-99.99,,2013-04-20 03:21:00,
2013-04-19 22:33:00,48.0,27.0,30.05,West,270,3.0,4.0,45,-99.99,,,-99.99,,2013-04-20 03:33:00,
2013-04-19 22:43:00,47.0,27.0,30.06,West,275,4.0,6.0,46,-99.99,,,-99.99,,2013-04-20 03:43:00,
2013-04-19 22:52:00,47.0,27.0,30.06,West,275,4.0,6.0,46,-99.99,,,-99.99,,2013-04-20 03:52:00,
2013-04-19 23:03:00,47.0,27.0,30.06,WSW,250,3.0,5.0,45,-99.99,,,-99.99,,2013-04-20 04:03:00,
2013-04-19 23:12:00,47.0,27.0,30.06,West,270,2.0,4.0,46,-99.99,,,-99.99,,2013-04-20 04:12:00,
2013-04-19 23:23:00,47.0,27.0,30.06,West,270,2.0,4.0,46,-99.99,,,-99.99,,2013-04-20 04:23:00,
2013-04-19 23:32:00,47.0,27.0,30.06,SSW,210,2.0,4.0,46,-99.99,,,-99.99,,2013-04-20 04:32:00,
2013-04-19 23:42:00,46.0,28.0,30.06,SW,225,1.0,3.0,48,-99.99,,,-99.99,,2013-04-20 04:42:00,
2013-04-19 23:52:00,46.0,28.0,30.06,SW,225,1.0,3.0,48,-99.99,,,-99.99,,2013-04-20 04:52:00,